Location: CNYAC Observatory
(43.2150°N, 74.9500°W)
Time: 20:03:56
(UTC-04:00)

Daily predictions for brighter satellites

Satellite Brightness Start Highest point End
(mag) Time Altitude Azimuth Time Altitude Azimuth Time Altitude Azimuth
Cosmos 1626 Rocket 4.3 20:55:34 10° SSE 20:59:36 35° E 21:03:38 10° NNE
Lacrosse 5 4.2 20:55:41 10° W 20:59:59 27° NNW 21:04:16 10° NNE
Cosmos 494 Rocket 4.0 20:55:13 10° SSW 21:00:20 85° ESE 21:05:29 10° NNE
CZ-4 SHROUD 4.4 20:59:36 10° SE 21:02:20 27° ENE 21:05:05 10° N
Meteor 2-4 Rocket 3.9 20:59:32 10° S 21:05:24 86° E 21:11:23 10° N
Cosmos 2228 3.1 21:01:24 10° N 21:05:49 70° E 21:10:12 10° SSE
Cosmos 2297 4.4 21:00:20 10° NNW 21:05:54 54° WSW 21:11:27 10° S
Cosmos 2333 Rocket 4.3 21:01:31 10° WSW 21:06:35 33° NW 21:11:41 10° N
YAOGAN 6 4.5 21:05:51 10° ESE 21:08:27 18° ENE 21:11:05 10° NNE
FENGYUN 3A 4.4 21:03:22 10° S 21:08:37 55° W 21:13:56 10° NNW
Cosmos 1025 Rocket 4.5 21:05:23 10° SSW 21:09:33 42° WNW 21:13:45 10° N
Cosmos 1943 4.4 21:10:58 10° SSE 21:15:08 22° E 21:19:21 10° NE
Cosmos 1943 Rocket 4.3 21:15:13 10° NNE 21:18:00 14° NE 21:20:48 10° ENE
Nimbus 7 Rocket 4.5 21:12:43 10° NNE 21:18:38 61° ESE 21:24:27 10° S
H-2A R/B 4.5 21:15:40 10° SSW 21:19:16 33° W 21:22:54 10° NNW
H-2A R/B 4.0 21:18:37 10° E 21:20:55 13° ENE 21:23:14 10° NNE
Okean 2 3.9 21:16:52 10° SSW 21:21:01 65° W 21:25:11 10° N
Cosmos 1891 Rocket 4.5 21:18:08 10° N 21:24:19 87° E 21:30:21 10° S
PSLV R/B 3.4 21:22:51 11° SSE 21:25:45 53° ENE 21:28:48 10° N
Aureole 2 Rocket 3.1 21:22:52 10° SSW 21:26:44 65° WNW 21:30:16 10° NNE
Lacrosse 4 Rocket 3.2 21:26:47 12° ESE 21:27:34 12° ESE 21:29:13 10° E
Timation 1 Rocket 4.5 21:22:03 10° NNW 21:28:05 80° WSW 21:34:04 10° SSE
SPOT 1/Viking Rocket 4.3 21:24:42 11° SE 21:29:10 38° ENE 21:33:54 10° N
SeaSat 1 2.6 21:24:32 11° SE 21:29:16 68° ENE 21:34:12 10° NNW
CZ-4B R/B 3.9 21:31:54 10° NNE 21:36:45 43° E 21:41:40 10° S
CZ-2C R/B 3.4 21:38:26 10° SW 21:39:51 15° W 21:41:17 10° WNW
DEBRIS 3.5 21:39:25 10° WNW 21:44:14 37° SW 21:45:47 18° SSE
Cosmos 1461 3.8 21:42:12 10° NW 21:46:17 44° WSW 21:49:44 13° S
ATLAS 3B R/B 3.3 21:44:22 10° S 21:51:25 40° ESE 21:58:21 10° NE
Tsikada Rocket 4.2 21:46:29 10° S 21:52:54 83° W 21:59:20 10° N
ARGOS 3.5 21:51:45 17° SE 21:55:46 53° ENE 22:01:03 10° N
Cosmos 2369 Rocket 2.5 21:52:12 10° NNW 21:57:48 56° ENE 22:01:39 20° SE
USA 234 3.3 22:01:10 18° SE 22:06:19 89° NE 22:12:56 10° NW
SL-16 R/B 4.4 22:01:47 10° WSW 22:06:33 28° NW 22:11:22 10° N
Atlas Centaur 2 3.7 22:01:23 10° SW 22:08:02 32° S 22:12:43 19° SE
Cosmos 1825 Rocket 3.6 22:05:59 17° S 22:09:20 67° E 22:13:45 10° NNE
Envisat 3.9 22:05:55 10° S 22:10:44 44° W 22:15:37 10° NNW
MetOp-B 4.4 22:07:00 14° S 22:11:34 68° WSW 22:16:56 10° NNW
NOAA 11 4.2 22:08:02 21° SSE 22:11:40 67° ENE 22:17:04 10° N
CZ-4C R/B 3.8 22:10:25 25° SE 22:12:33 50° ENE 22:16:30 10° N
Cosmos 1812 Rocket 4.5 22:10:05 10° NNW 22:14:16 45° W 22:18:12 12° SSW
Cosmos 407 Rocket 3.8 22:11:19 19° SSE 22:14:45 46° ESE 22:19:44 10° NNE
ISS -3.5 22:13:59 10° SW 22:17:14 87° SE 22:20:31 10° ENE
Cosmos 2142 Rocket 4.5 22:13:19 10° N 22:19:40 83° E 22:24:04 21° S
CZ-4 R/B 3.9 22:15:18 10° NNE 22:20:19 76° ESE 22:24:19 16° S
PSLV R/B 3.4 22:18:18 10° WSW 22:21:48 56° S 22:22:59 35° ESE
SL-08 RB Rocket 3.6 22:21:16 27° SSE 22:23:44 79° ENE 22:28:17 10° N
Cosmos 2263 4.3 22:18:16 10° NNW 22:23:52 66° ENE 22:26:58 27° SE
COSMOS 2406 4.4 22:27:26 21° ESE 22:28:11 22° E 22:32:28 10° NE
SPOT 5 4.2 22:25:03 10° SSW 22:28:53 29° W 22:32:42 10° NW
Meteor 1-22 Rocket 4.2 22:23:24 10° N 22:28:59 83° E 22:32:25 26° SSE
Landsat 7 3.9 22:27:37 30° SSE 22:29:55 67° ENE 22:34:40 10° N
Cosmos 1953 3.5 22:26:32 10° NNE 22:30:00 27° ENE 22:30:51 25° E
Cosmos 1634 Rocket 4.0 22:24:05 10° N 22:30:16 79° W 22:34:40 20° S
Lacrosse 5 rocket 4.4 22:28:59 10° NW 22:31:29 16° NNW 22:34:04 10° NNE
COSMOS 2455 3.3 22:26:16 10° SW 22:32:12 63° NW 22:38:12 10° NNE
USA 81 4.3 22:28:45 10° N 22:33:59 65° W 22:37:42 19° SSW
Cosmos 1066 Rocket 4.3 22:30:02 13° SSW 22:35:12 79° W 22:41:04 10° N
YAOGAN 6 4.1 22:39:45 19° SSW 22:41:49 32° W 22:45:13 10° NNW
Terra 1.9 22:43:54 36° SE 22:45:43 67° ENE 22:50:28 10° N
Cosmos 489 Rocket 4.4 22:42:05 14° SSW 22:47:38 85° ESE 22:54:01 10° NNE
Cosmos 1346 Rocket 3.3 22:48:51 25° SSW 22:50:56 56° WNW 22:54:49 10° N
IGS 5A 3.5 22:51:07 47° SE 22:52:11 69° ENE 22:56:21 10° N
Cosmos 2279 Rocket 4.0 22:47:23 10° N 22:53:40 88° W 22:56:56 31° S
Cosmos 1953 Rocket 4.2 22:52:37 20° SSW 22:55:25 52° WNW 22:59:47 10° N
Cosmos 2084 4.2 22:52:39 10° NNW 22:56:36 43° NE 22:57:57 32° E
Cosmos 1943 3.8 22:53:09 10° SW 22:58:43 57° WNW 23:04:21 10° NNE
H-2A R/B 1.9 22:57:40 39° S 22:59:34 85° WSW 23:04:40 10° NNW
Geosat 4.1 22:57:35 10° NNE 23:02:38 77° WNW 23:06:36 16° SW
Cosmos 1943 Rocket 2.2 22:57:12 10° NNW 23:02:45 74° ENE 23:04:49 40° SE
Cosmos 1842 3.2 23:04:01 56° SSW 23:04:48 86° W 23:08:45 10° N
Lacrosse 4 Rocket 1.8 23:03:03 20° SW 23:05:44 60° WNW 23:09:48 10° NNE
SAR-Lupe-2 3.8 23:05:25 51° SW 23:05:54 57° WSW 23:09:28 10° NNW
Cosmos 1932 4.4 23:03:15 30° S 23:06:19 61° ESE 23:12:27 10° NE
Meteor 1-21 4.4 23:03:33 24° SSW 23:07:11 73° WNW 23:13:02 10° N
Cosmos 2221 4.5 23:04:35 10° NNE 23:07:21 16° ENE 23:07:58 16° E
Cosmos 1570 Rocket 4.4 23:02:34 10° NNW 23:07:51 55° ENE 23:09:35 38° ESE
Cosmos 1850 Rocket 4.4 23:09:59 40° ESE 23:10:37 42° ESE 23:15:31 10° NE
Cosmos-2242 3.0 23:06:13 10° N 23:10:39 81° W 23:11:38 53° S
Cosmos 1607 4.3 23:12:49 38° SE 23:13:51 41° ESE 23:19:37 10° NE
Cosmos 1758 3.2 23:11:40 10° N 23:15:48 89° W 23:16:19 68° S
Cosmos 1656 Rocket 4.2 23:12:19 10° NNW 23:17:51 49° ENE 23:19:52 34° ESE
Okean 3 Rocket 4.5 23:23:15 34° E 23:23:15 34° E 23:27:06 10° NNE
DMSP B5D2-2 4.2 23:18:33 10° N 23:23:50 73° WNW 23:26:13 33° SSW
Meteor 2-5 Rocket 4.4 23:23:06 37° ESE 23:24:14 40° E 23:29:36 10° NNE
Cosmos 1023 Rocket 4.4 23:22:55 49° S 23:24:17 72° ESE 23:29:33 10° NNE
Cosmos 1140 Rocket 3.4 23:28:55 50° S 23:30:20 81° ESE 23:35:37 10° NNE
Cosmos 1733 4.3 23:28:19 10° N 23:31:40 34° ENE 23:31:40 34° ENE
Cosmos 2369 Rocket 3.9 23:37:10 10° NW 23:41:21 22° W 23:43:27 17° SW
ATLAS 3B R/B 3.6 23:34:34 10° WSW 23:42:03 53° NW 23:49:22 10° NNE
COSMOS 2487 3.8 23:47:20 34° NE 23:47:20 34° NE 23:49:38 10° NNE
ALOS 2 3.7 23:46:16 31° E 23:46:42 32° ENE 23:50:36 10° N
NOSS 3-2 (A) 4.0 23:47:21 37° ESE 23:47:28 37° ESE 23:53:24 10° NE
USA 234 4.4 23:48:30 24° SW 23:49:50 25° SW 23:55:08 10° WNW
ISS -0.9 23:51:17 10° WNW 23:54:00 24° NNW 23:56:44 10° NE
Cosmos 1470 2.9 23:50:18 10° N 23:53:49 72° N 23:53:49 72° N
SL-27 R/B 4.0 23:54:51 29° WNW 23:55:02 29° WNW 23:58:02 10° N
